Machine Overzicht

Generator events en service beheer USB: 6F2E7E9687 ×
Records
182
van 353,750
Machines
1
Starts
87
Warnings
19
25 resultaten · pagina 7 van 8
Dubbelklik service uren om te bewerken
ID Machine Gebeurtenis Tijd Uren Service Status USB ID
307287 60-055XAS-S5 Engine Start 27-08-2025 07:49:22 312 500 In orde 6F2E7E9687
307179 60-055XAS-S5 Generator Over Current Warning 26-08-2025 09:23:51 308 500 In orde 6F2E7E9687
307168 60-055XAS-S5 Engine Start 26-08-2025 08:51:42 307 500 In orde 6F2E7E9687
306600 60-055XAS-S5 Engine Stopped 22-08-2025 05:39:23 307 500 In orde 6F2E7E9687
306608 60-055XAS-S5 Engine Start 22-08-2025 05:21:39 307 500 In orde 6F2E7E9687
303898 60-055XAS-S5 ECU Lamp 15-08-2025 14:36:00 241 500 In orde 6F2E7E9687
303797 60-055XAS-S5 Generator Over Current Warning 14-08-2025 19:56:36 223 500 In orde 6F2E7E9687
303452 60-055XAS-S5 Engine Stopped 13-08-2025 14:35:17 193 500 In orde 6F2E7E9687
303454 60-055XAS-S5 Generator Under Volts Shutdown 13-08-2025 14:35:07 193 500 In orde 6F2E7E9687
303450 60-055XAS-S5 Engine Start 13-08-2025 14:34:47 193 500 In orde 6F2E7E9687
303451 60-055XAS-S5 Engine Stopped 13-08-2025 14:34:10 193 500 In orde 6F2E7E9687
303380 60-055XAS-S5 Engine Start 13-08-2025 09:21:11 188 500 In orde 6F2E7E9687
303381 60-055XAS-S5 Engine Stopped 13-08-2025 09:21:01 188 500 In orde 6F2E7E9687
303379 60-055XAS-S5 MSC Failure Warning 13-08-2025 09:17:34 188 500 In orde 6F2E7E9687
303378 60-055XAS-S5 Engine Start 13-08-2025 09:14:15 188 500 In orde 6F2E7E9687
303081 60-055XAS-S5 Engine Start 11-08-2025 12:53:02 188 500 In orde 6F2E7E9687
302826 60-055XAS-S5 MSC Failure Warning 08-08-2025 14:25:16 188 500 In orde 6F2E7E9687
302827 60-055XAS-S5 Engine Stopped 08-08-2025 14:25:03 188 500 In orde 6F2E7E9687
302824 60-055XAS-S5 Engine Start 08-08-2025 14:21:55 188 500 In orde 6F2E7E9687
302456 60-055XAS-S5 Engine Stopped 06-08-2025 12:19:28 188 500 In orde 6F2E7E9687
302457 60-055XAS-S5 Emergency Stop Shutdown 06-08-2025 12:19:18 188 500 In orde 6F2E7E9687
302455 60-055XAS-S5 Engine Start 06-08-2025 12:12:12 187 500 In orde 6F2E7E9687
302453 60-055XAS-S5 Engine Stopped 06-08-2025 12:11:44 187 500 In orde 6F2E7E9687
302454 60-055XAS-S5 kW Overload Alarm Warning 06-08-2025 12:11:32 187 500 In orde 6F2E7E9687
302450 60-055XAS-S5 Engine Start 06-08-2025 12:05:22 187 500 In orde 6F2E7E9687
151–175 van 182